,,Stat6,,Stat2,,Stat8,,Stat9,,Stat10,,Wind1,,Wind1,
time,status,PA1M_AVG,status,PR1M_SUM,status,RH1M_AVG,status,SR1M_AVG,status,TA1M_AVG,status,W1dAve1m,status,W1sAve1m,
2005-08-26, 00:00:00,VALID,918.534,VALID,0,VALID,100,VALID,-0.0339617,VALID,19.4088,VALID,16,VALID,0.224382,
2005-08-26, 00:01:00,VALID,918.499,VALID,0,VALID,100,VALID,-0.0339617,VALID,19.4188,VALID,16,VALID,0.18733,
2005-08-26, 00:02:00,VALID,918.474,VALID,0,VALID,100,VALID,-0.0679233,VALID,19.4053,VALID,16,VALID,0.416788,
2005-08-26, 00:03:00,VALID,918.448,VALID,0,VALID,100,VALID,-0.0169808,VALID,19.4021,VALID,15,VALID,0.386009,
2005-08-26, 00:04:00,VALID,918.42,VALID,0,VALID,100,VALID,-0.0679233,VALID,19.383,VALID,11,VALID,0.577009,
2005-08-26, 00:05:00,VALID,918.397,VALID,0,VALID,100,VALID,-0.0509425,VALID,19.3599,VALID,6,VALID,0.572181,
2005-08-26, 00:06:00,VALID,918.38,VALID,0,VALID,100,VALID,-0.0339617,VALID,19.3567,VALID,6,VALID,0.353561,
2005-08-26, 00:07:00,VALID,918.37,VALID,0,VALID,100,VALID,0,VALID,19.3601,VALID,10,VALID,0.712109,
2005-08-26, 00:08:00,VALID,918.357,VALID,0,VALID,100,VALID,-0.0169808,VALID,19.3373,VALID,4,VALID,1.20982,
2005-08-26, 00:09:00,VALID,918.344,VALID,0,VALID,100,VALID,-0.0339617,VALID,19.3018,VALID,16,VALID,1.4057,
2005-08-26, 00:10:00,VALID,918.323,VALID,0,VALID,100,VALID,0,VALID,19.2988,VALID,21,VALID,1.33872,
2005-08-26, 00:11:00,VALID,918.311,VALID,0,VALID,100,VALID,-0.0509425,VALID,19.2888,VALID,19,VALID,1.129,
2005-08-26, 00:12:00,VALID,918.29,VALID,0,VALID,100,VALID,0,VALID,19.2829,VALID,14,VALID,1.07087,
2005-08-26, 00:13:00,VALID,918.26,VALID,0,VALID,100,VALID,0,VALID,19.2792,VALID,354,VALID,0.898242,
2005-08-26, 00:14:00,VALID,918.222,VALID,0,VALID,100,VALID,-0.0679233,VALID,19.2536,VALID,358,VALID,0.868902,
2005-08-26, 00:15:00,VALID,918.202,VALID,0,VALID,100,VALID,-0.0509425,VALID,19.2372,VALID,4,VALID,1.03182,
2005-08-26, 00:16:00,VALID,918.183,VALID,0,VALID,100,VALID,-0.0679233,VALID,19.2344,VALID,5,VALID,1.3581,
2005-08-26, 00:17:00,VALID,918.177,VALID,0,VALID,100,VALID,-0.0509425,VALID,19.221,VALID,24,VALID,0.252486,
2005-08-26, 00:18:00,VALID,918.182,VALID,0,VALID,100,VALID,0,VALID,19.264,VALID,7,VALID,0.525746,
2005-08-26, 00:19:00,VALID,918.164,VALID,0,VALID,100,VALID,-0.0339617,VALID,19.2473,VALID,5,VALID,1.20469,
2005-08-26, 00:20:00,VALID,918.184,VALID,0,VALID,100,VALID,-0.0339617,VALID,19.2215,VALID,320,VALID,0.538699,
2005-08-26, 00:21:00,VALID,918.183,VALID,0,VALID,100,VALID,-0.0339617,VALID,19.2213,VALID,318,VALID,0.296693,
2005-08-26, 00:22:00,VALID,918.176,VALID,0,VALID,100,VALID,-0.0169808,VALID,19.2635,VALID,340,VALID,0.271528,
2005-08-26, 00:23:00,VALID,918.155,VALID,0,VALID,100,VALID,-0.0509425,VALID,19.2695,VALID,357,VALID,0.970465,
2005-08-26, 00:24:00,VALID,918.15,VALID,0,VALID,100,VALID,0,VALID,19.267,VALID,356,VALID,0.573475,
2005-08-26, 00:25:00,VALID,918.141,VALID,0,VALID,100,VALID,0,VALID,19.2344,VALID,356,VALID,0.763808,
2005-08-26, 00:26:00,VALID,918.137,VALID,0,VALID,100,VALID,0,VALID,19.218,VALID,2,VALID,1.23018,
2005-08-26, 00:27:00,VALID,918.144,VALID,0,VALID,100,VALID,-0.0509425,VALID,19.1984,VALID,18,VALID,1.26618,
2005-08-26, 00:28:00,VALID,918.168,VALID,0,VALID,100,VALID,-0.0169808,VALID,19.2185,VALID,16,VALID,0.832589,
2005-08-26, 00:29:00,VALID,918.165,VALID,0,VALID,100,VALID,0,VALID,19.2441,VALID,19,VALID,0.711104,
2005-08-26, 00:30:00,VALID,918.168,VALID,0,VALID,100,VALID,0,VALID,19.2635,VALID,16,VALID,0.929332,
2005-08-26, 00:31:00,VALID,918.187,VALID,0,VALID,100,VALID,-0.0339617,VALID,19.2178,VALID,353,VALID,1.08789,
2005-08-26, 00:32:00,VALID,918.189,VALID,0,VALID,100,VALID,-0.0509425,VALID,19.2054,VALID,17,VALID,1.62409,
2005-08-26, 00:33:00,VALID,918.206,VALID,0,VALID,100,VALID,-0.0509425,VALID,19.1922,VALID,11,VALID,1.21615,
2005-08-26, 00:34:00,VALID,918.225,VALID,0,VALID,100,VALID,-0.0509425,VALID,19.1604,VALID,22,VALID,1.29379,
2005-08-26, 00:35:00,VALID,918.219,VALID,0,VALID,100,VALID,-0.0169808,VALID,19.1309,VALID,27,VALID,1.10842,
2005-08-26, 00:36:00,VALID,918.223,VALID,0,VALID,100,VALID,-0.0509425,VALID,19.1569,VALID,28,VALID,0.987233,
2005-08-26, 00:37:00,VALID,918.216,VALID,0,VALID,100,VALID,-0.0509425,VALID,19.1311,VALID,16,VALID,1.26669,
2005-08-26, 00:38:00,VALID,918.234,VALID,0,VALID,100,VALID,-0.0509425,VALID,19.1053,VALID,8,VALID,0.870561,
2005-08-26, 00:39:00,VALID,918.232,VALID,0,VALID,100,VALID,-0.0509425,VALID,19.0861,VALID,5,VALID,1.06463,
2005-08-26, 00:40:00,VALID,918.256,VALID,0,VALID,100,VALID,-0.0849042,VALID,19.0407,VALID,9,VALID,0.952934,
2005-08-26, 00:41:00,VALID,918.268,VALID,0,VALID,100,VALID,-0.0509425,VALID,19.0508,VALID,16,VALID,0.84811,
2005-08-26, 00:42:00,VALID,918.273,VALID,0,VALID,100,VALID,-0.0509425,VALID,19.0414,VALID,32,VALID,0.74082,
2005-08-26, 00:43:00,VALID,918.306,VALID,0,VALID,100,VALID,-0.0679233,VALID,19.0474,VALID,11,VALID,0.618118,
2005-08-26, 00:44:00,VALID,918.312,VALID,0,VALID,100,VALID,-0.101885,VALID,19.0315,VALID,327,VALID,0.692023,
2005-08-26, 00:45:00,VALID,918.333,VALID,0,VALID,100,VALID,-0.0849042,VALID,19.0213,VALID,343,VALID,0.480923,
2005-08-26, 00:46:00,VALID,918.345,VALID,0,VALID,100,VALID,-0.0339617,VALID,19.0248,VALID,2,VALID,0.37691,
2005-08-26, 00:47:00,VALID,918.364,VALID,0,VALID,100,VALID,-0.0339617,VALID,19.0315,VALID,323,VALID,0.521151,
2005-08-26, 00:48:00,VALID,918.373,VALID,0,VALID,100,VALID,-0.0679233,VALID,19.0243,VALID,336,VALID,0.567336,
2005-08-26, 00:49:00,VALID,918.354,VALID,0,VALID,100,VALID,-0.0679233,VALID,19.0446,VALID,353,VALID,0.609189,
2005-08-26, 00:50:00,VALID,918.354,VALID,0.2,VALID,100,VALID,-0.0509425,VALID,19.0315,VALID,1,VALID,0.759028,
2005-08-26, 00:51:00,VALID,918.323,VALID,0,VALID,100,VALID,-0.0679233,VALID,19.0476,VALID,7,VALID,0.481771,
2005-08-26, 00:52:00,VALID,918.299,VALID,0,VALID,100,VALID,-0.0679233,VALID,19.0668,VALID,18,VALID,0.554874,
2005-08-26, 00:53:00,VALID,918.277,VALID,0,VALID,100,VALID,-0.0509425,VALID,19.0638,VALID,16,VALID,0.140807,
2005-08-26, 00:54:00,VALID,918.261,VALID,0,VALID,100,VALID,-0.0679233,VALID,19.0672,VALID,16,VALID,0.351004,
2005-08-26, 00:55:00,VALID,918.243,VALID,0,VALID,100,VALID,-0.0849042,VALID,19.0414,VALID,345,VALID,0.421148,
2005-08-26, 00:56:00,VALID,918.22,VALID,0,VALID,100,VALID,-0.0679233,VALID,19.0541,VALID,358,VALID,0.616678,
2005-08-26, 00:57:00,VALID,918.199,VALID,0,VALID,100,VALID,-0.0849042,VALID,19.0603,VALID,22,VALID,0.736662,
2005-08-26, 00:58:00,VALID,918.176,VALID,0,VALID,100,VALID,-0.0339617,VALID,19.0864,VALID,27,VALID,0.488451,
2005-08-26, 00:59:00,VALID,918.162,VALID,0,VALID,100,VALID,-0.0679233,VALID,19.1097,VALID,27,VALID,0.429306,
2005-08-26, 01:00:00,VALID,918.131,VALID,0,VALID,100,VALID,-0.101885,VALID,19.106,VALID,24,VALID,0.425781,
2005-08-26, 01:01:00,VALID,918.121,VALID,0,VALID,100,VALID,-0.101885,VALID,19.1124,VALID,19,VALID,0.0855655,
2005-08-26, 01:02:00,VALID,918.113,VALID,0,VALID,100,VALID,-0.101885,VALID,19.1191,VALID,19,VALID,0.155342,
2005-08-26, 01:03:00,VALID,918.108,VALID,0,VALID,100,VALID,-0.101885,VALID,19.1251,VALID,19,VALID,0,
2005-08-26, 01:04:00,VALID,918.112,VALID,0,VALID,100,VALID,-0.101885,VALID,19.1417,VALID,19,VALID,0,
2005-08-26, 01:05:00,VALID,918.112,VALID,0,VALID,100,VALID,-0.0849042,VALID,19.1316,VALID,19,VALID,0,
2005-08-26, 01:06:00,VALID,918.108,VALID,0,VALID,100,VALID,-0.101885,VALID,19.1413,VALID,19,VALID,0.0123355,
2005-08-26, 01:07:00,VALID,918.11,VALID,0,VALID,100,VALID,-0.101885,VALID,19.1512,VALID,19,VALID,0.24343,
2005-08-26, 01:08:00,VALID,918.111,VALID,0,VALID,100,VALID,-0.101885,VALID,19.1706,VALID,19,VALID,0.228198,
2005-08-26, 01:09:00,VALID,918.096,VALID,0,VALID,100,VALID,-0.0849042,VALID,19.148,VALID,19,VALID,0.237537,
2005-08-26, 01:10:00,VALID,918.083,VALID,0,VALID,100,VALID,-0.0849042,VALID,19.1576,VALID,19,VALID,0.228277,
2005-08-26, 01:11:00,VALID,918.058,VALID,0,VALID,100,VALID,-0.0849042,VALID,19.1703,VALID,17,VALID,0.439941,
2005-08-26, 01:12:00,VALID,918.024,VALID,0,VALID,100,VALID,-0.0679233,VALID,19.1768,VALID,6,VALID,0.5129,
2005-08-26, 01:13:00,VALID,918.001,VALID,0,VALID,100,VALID,-0.0849042,VALID,19.1966,VALID,6,VALID,0.554865,
2005-08-26, 01:14:00,VALID,917.974,VALID,0,VALID,100,VALID,-0.0679233,VALID,19.1805,VALID,6,VALID,0.584821,
2005-08-26, 01:15:00,VALID,917.945,VALID,0,VALID,100,VALID,0,VALID,19.1627,VALID,6,VALID,0.438672,
2005-08-26, 01:16:00,VALID,917.949,VALID,0,VALID,100,VALID,0.0169808,VALID,19.1527,VALID,6,VALID,0.175967,
2005-08-26, 01:17:00,VALID,917.947,VALID,0,VALID,100,VALID,0,VALID,19.1987,VALID,6,VALID,0.060902,
2005-08-26, 01:18:00,VALID,917.943,VALID,0,VALID,100,VALID,0.0339617,VALID,19.1982,VALID,6,VALID,0.24272,
2005-08-26, 01:19:00,VALID,917.939,VALID,0,VALID,100,VALID,0,VALID,19.2079,VALID,6,VALID,0.151389,
2005-08-26, 01:20:00,VALID,917.929,VALID,0,VALID,100,VALID,-0.0509425,VALID,19.1954,VALID,6,VALID,0.411204,
2005-08-26, 01:21:00,VALID,917.921,VALID,0,VALID,100,VALID,0.0169808,VALID,19.182,VALID,6,VALID,0.464674,
2005-08-26, 01:22:00,VALID,917.914,VALID,0,VALID,100,VALID,0,VALID,19.1753,VALID,3,VALID,0.40253,
2005-08-26, 01:23:00,VALID,917.911,VALID,0,VALID,100,VALID,0,VALID,19.1468,VALID,2,VALID,0.281064,
2005-08-26, 01:24:00,VALID,917.9,VALID,0,VALID,100,VALID,0.0169808,VALID,19.1242,VALID,2,VALID,0.0119913,
2005-08-26, 01:25:00,VALID,917.884,VALID,0,VALID,100,VALID,0,VALID,19.0852,VALID,2,VALID,0.0657986,
2005-08-26, 01:26:00,VALID,917.867,VALID,0,VALID,100,VALID,0,VALID,19.0884,VALID,2,VALID,0.0704861,
2005-08-26, 01:27:00,VALID,917.858,VALID,0,VALID,100,VALID,0,VALID,19.0819,VALID,2,VALID,0.0567708,
2005-08-26, 01:28:00,VALID,917.84,VALID,0,VALID,100,VALID,0,VALID,19.0822,VALID,2,VALID,0.304306,
2005-08-26, 01:29:00,VALID,917.829,VALID,0,VALID,100,VALID,0,VALID,19.0856,VALID,359,VALID,0.277043,
2005-08-26, 01:30:00,VALID,917.81,VALID,0,VALID,100,VALID,0,VALID,19.0854,VALID,359,VALID,0,
2005-08-26, 01:31:00,VALID,917.772,VALID,0,VALID,100,VALID,0.0339617,VALID,19.1048,VALID,359,VALID,0,
2005-08-26, 01:32:00,VALID,917.747,VALID,0,VALID,100,VALID,0,VALID,19.115,VALID,359,VALID,0.0147166,
2005-08-26, 01:33:00,VALID,917.71,VALID,0,VALID,100,VALID,0,VALID,19.1018,VALID,357,VALID,0.278088,
2005-08-26, 01:34:00,VALID,917.688,VALID,0,VALID,100,VALID,-0.0169808,VALID,19.0923,VALID,311,VALID,0.701215,
2005-08-26, 01:35:00,VALID,917.659,VALID,0,VALID,100,VALID,0,VALID,19.0732,VALID,309,VALID,0.551599,
2005-08-26, 01:36:00,VALID,917.634,VALID,0,VALID,100,VALID,0,VALID,19.0467,VALID,322,VALID,0.316034,
2005-08-26, 01:37:00,VALID,917.606,VALID,0,VALID,100,VALID,0,VALID,19.0531,VALID,345,VALID,0.299306,
2005-08-26, 01:38:00,VALID,917.605,VALID,0,VALID,100,VALID,-0.0169808,VALID,19.0638,VALID,345,VALID,0.143924,
2005-08-26, 01:39:00,VALID,917.582,VALID,0,VALID,100,VALID,0,VALID,19.034,VALID,345,VALID,0.0386905,
2005-08-26, 01:40:00,VALID,917.561,VALID,0,VALID,100,VALID,0,VALID,19.0114,VALID,343,VALID,0.269055,
2005-08-26, 01:41:00,VALID,917.561,VALID,0,VALID,100,VALID,0,VALID,19.0014,VALID,343,VALID,0.00710227,
2005-08-26, 01:42:00,VALID,917.526,VALID,0,VALID,100,VALID,0,VALID,19.0114,VALID,343,VALID,0.084032,
2005-08-26, 01:43:00,VALID,917.533,VALID,0,VALID,100,VALID,0,VALID,18.9726,VALID,343,VALID,0.362216,
2005-08-26, 01:44:00,VALID,917.532,VALID,0,VALID,100,VALID,0,VALID,18.95,VALID,342,VALID,0.303711,
2005-08-26, 01:45:00,VALID,917.541,VALID,0,VALID,100,VALID,0,VALID,18.9401,VALID,300,VALID,0.488377,
2005-08-26, 01:46:00,VALID,917.558,VALID,0,VALID,100,VALID,0,VALID,18.9336,VALID,299,VALID,0.382449,
2005-08-26, 01:47:00,VALID,917.574,VALID,0,VALID,100,VALID,-0.0169808,VALID,18.9299,VALID,299,VALID,0.0649038,
2005-08-26, 01:48:00,VALID,917.596,VALID,0,VALID,100,VALID,0.0169808,VALID,18.9302,VALID,299,VALID,0.0758681,
2005-08-26, 01:49:00,VALID,917.607,VALID,0,VALID,100,VALID,0,VALID,18.9438,VALID,299,VALID,0.304116,
2005-08-26, 01:50:00,VALID,917.614,VALID,0,VALID,100,VALID,0,VALID,18.9473,VALID,299,VALID,0.133929,
2005-08-26, 01:51:00,VALID,917.622,VALID,0,VALID,100,VALID,0,VALID,18.9408,VALID,299,VALID,0.00372869,
2005-08-26, 01:52:00,VALID,917.62,VALID,0,VALID,100,VALID,-0.0169808,VALID,18.9344,VALID,299,VALID,0,
2005-08-26, 01:53:00,VALID,917.623,VALID,0,VALID,100,VALID,-0.0169808,VALID,18.9339,VALID,299,VALID,0,
2005-08-26, 01:54:00,VALID,917.625,VALID,0,VALID,100,VALID,0.0169808,VALID,18.9507,VALID,299,VALID,0,
2005-08-26, 01:55:00,VALID,917.635,VALID,0,VALID,100,VALID,0,VALID,18.9662,VALID,299,VALID,0.198828,
2005-08-26, 01:56:00,VALID,917.623,VALID,0,VALID,100,VALID,0,VALID,18.9629,VALID,299,VALID,0.300347,
2005-08-26, 01:57:00,VALID,917.638,VALID,0,VALID,100,VALID,0,VALID,18.953,VALID,299,VALID,0.191067,
2005-08-26, 01:58:00,VALID,917.645,VALID,0,VALID,100,VALID,0,VALID,18.9632,VALID,299,VALID,0.0723684,
2005-08-26, 01:59:00,VALID,917.645,VALID,0,VALID,100,VALID,0.0169808,VALID,18.9595,VALID,299,VALID,0,
2005-08-26, 02:00:00,VALID,917.664,VALID,0,VALID,100,VALID,-0.0509425,VALID,18.986,VALID,299,VALID,0,
2005-08-26, 02:01:00,VALID,917.669,VALID,0,VALID,100,VALID,0,VALID,19.0091,VALID,299,VALID,0.0206597,
2005-08-26, 02:02:00,VALID,917.676,VALID,0,VALID,100,VALID,-0.0169808,VALID,18.9992,VALID,299,VALID,0,
2005-08-26, 02:03:00,VALID,917.674,VALID,0,VALID,100,VALID,0,VALID,18.9662,VALID,299,VALID,0.00109012,
2005-08-26, 02:04:00,VALID,917.676,VALID,0,VALID,100,VALID,0,VALID,18.9632,VALID,299,VALID,0,
2005-08-26, 02:05:00,VALID,917.674,VALID,0,VALID,100,VALID,0,VALID,18.9925,VALID,299,VALID,0,
2005-08-26, 02:06:00,VALID,917.666,VALID,0,VALID,100,VALID,0,VALID,18.9989,VALID,299,VALID,0,
2005-08-26, 02:07:00,VALID,917.661,VALID,0,VALID,100,VALID,0,VALID,19.0081,VALID,299,VALID,0,
2005-08-26, 02:08:00,VALID,917.648,VALID,0,VALID,100,VALID,0,VALID,19.0252,VALID,299,VALID,0,
2005-08-26, 02:09:00,VALID,917.64,VALID,0,VALID,100,VALID,-0.0339617,VALID,19.0156,VALID,301,VALID,0.247456,
2005-08-26, 02:10:00,VALID,917.652,VALID,0,VALID,100,VALID,-0.0509425,VALID,19.0414,VALID,302,VALID,0.015625,
2005-08-26, 02:11:00,VALID,917.655,VALID,0,VALID,100,VALID,0.0169808,VALID,19.0608,VALID,304,VALID,0.182986,
2005-08-26, 02:12:00,VALID,917.666,VALID,0,VALID,100,VALID,0,VALID,19.0827,VALID,353,VALID,0.592226,
2005-08-26, 02:13:00,VALID,917.665,VALID,0,VALID,100,VALID,-0.0169808,VALID,19.0993,VALID,2,VALID,0.551883,
2005-08-26, 02:14:00,VALID,917.656,VALID,0,VALID,100,VALID,-0.0169808,VALID,19.0988,VALID,19,VALID,0.530729,
2005-08-26, 02:15:00,VALID,917.637,VALID,0,VALID,100,VALID,0,VALID,19.1152,VALID,19,VALID,0.440304,
2005-08-26, 02:16:00,VALID,917.626,VALID,0,VALID,100,VALID,-0.0169808,VALID,19.0864,VALID,19,VALID,0.157703,
2005-08-26, 02:17:00,VALID,917.617,VALID,0,VALID,100,VALID,-0.0509425,VALID,19.0868,VALID,19,VALID,0,
2005-08-26, 02:18:00,VALID,917.611,VALID,0,VALID,100,VALID,0,VALID,19.0767,VALID,19,VALID,0,
2005-08-26, 02:19:00,VALID,917.605,VALID,0,VALID,100,VALID,0,VALID,19.0993,VALID,19,VALID,0.16748,
2005-08-26, 02:20:00,VALID,917.602,VALID,0,VALID,100,VALID,-0.0509425,VALID,19.0931,VALID,19,VALID,0.262576,
2005-08-26, 02:21:00,VALID,917.604,VALID,0,VALID,100,VALID,-0.0169808,VALID,19.1025,VALID,19,VALID,0.0457589,
2005-08-26, 02:22:00,VALID,917.586,VALID,0,VALID,100,VALID,-0.0339617,VALID,19.1187,VALID,19,VALID,0.0242187,
2005-08-26, 02:23:00,VALID,917.587,VALID,0,VALID,100,VALID,-0.0169808,VALID,19.1318,VALID,19,VALID,0.102865,
2005-08-26, 02:24:00,VALID,917.572,VALID,0,VALID,100,VALID,-0.0339617,VALID,19.1244,VALID,19,VALID,0.36814,
2005-08-26, 02:25:00,VALID,917.564,VALID,0,VALID,100,VALID,-0.0339617,VALID,19.1636,VALID,18,VALID,0.452217,
2005-08-26, 02:26:00,VALID,917.538,VALID,0,VALID,100,VALID,0,VALID,19.147,VALID,13,VALID,0.612695,
2005-08-26, 02:27:00,VALID,917.52,VALID,0,VALID,100,VALID,-0.0169808,VALID,19.1537,VALID,13,VALID,0.670603,
2005-08-26, 02:28:00,VALID,917.502,VALID,0,VALID,100,VALID,0,VALID,19.1438,VALID,13,VALID,0.486607,
2005-08-26, 02:29:00,VALID,917.488,VALID,0,VALID,100,VALID,0,VALID,19.1212,VALID,3,VALID,0.591619,
2005-08-26, 02:30:00,VALID,917.452,VALID,0,VALID,100,VALID,-0.0169808,VALID,19.105,VALID,348,VALID,0.727726,
2005-08-26, 02:31:00,VALID,917.452,VALID,0,VALID,100,VALID,0,VALID,19.1122,VALID,348,VALID,0.712695,
2005-08-26, 02:32:00,VALID,917.431,VALID,0,VALID,99.9954,VALID,-0.0169808,VALID,19.1092,VALID,352,VALID,0.696514,
2005-08-26, 02:33:00,VALID,917.404,VALID,0,VALID,99.9929,VALID,-0.0339617,VALID,19.099,VALID,17,VALID,0.970833,
2005-08-26, 02:34:00,VALID,917.377,VALID,0,VALID,99.988,VALID,-0.0679233,VALID,19.073,VALID,8,VALID,1.18917,
2005-08-26, 02:35:00,VALID,917.372,VALID,0,VALID,99.9855,VALID,-0.0169808,VALID,19.0734,VALID,10,VALID,1.14862,
2005-08-26, 02:36:00,VALID,917.361,VALID,0,VALID,100,VALID,0,VALID,19.0608,VALID,3,VALID,0.781795,
2005-08-26, 02:37:00,VALID,917.338,VALID,0,VALID,100,VALID,-0.0509425,VALID,19.0349,VALID,341,VALID,0.728237,
2005-08-26, 02:38:00,VALID,917.324,VALID,0,VALID,100,VALID,0,VALID,19.0285,VALID,320,VALID,0.142442,
2005-08-26, 02:39:00,VALID,917.312,VALID,0,VALID,100,VALID,-0.0169808,VALID,19.0211,VALID,331,VALID,0.306108,
2005-08-26, 02:40:00,VALID,917.31,VALID,0,VALID,100,VALID,0,VALID,19.0213,VALID,308,VALID,0.693229,
2005-08-26, 02:41:00,VALID,917.305,VALID,0,VALID,100,VALID,0,VALID,18.9855,VALID,308,VALID,0.626272,
2005-08-26, 02:42:00,VALID,917.3,VALID,0,VALID,100,VALID,0,VALID,18.9629,VALID,317,VALID,0.514535,
2005-08-26, 02:43:00,VALID,917.304,VALID,0,VALID,100,VALID,0,VALID,18.9696,VALID,349,VALID,0.625727,
2005-08-26, 02:44:00,VALID,917.304,VALID,0,VALID,100,VALID,0,VALID,18.9659,VALID,1,VALID,0.834413,
2005-08-26, 02:45:00,VALID,917.307,VALID,0,VALID,100,VALID,-0.0169808,VALID,18.9796,VALID,356,VALID,1.06155,
2005-08-26, 02:46:00,VALID,917.338,VALID,0,VALID,100,VALID,-0.0339617,VALID,18.9863,VALID,348,VALID,0.713956,
2005-08-26, 02:47:00,VALID,917.348,VALID,0,VALID,100,VALID,-0.0169808,VALID,19.0056,VALID,353,VALID,0.50436,
2005-08-26, 02:48:00,VALID,917.354,VALID,0,VALID,100,VALID,-0.0169808,VALID,19.0186,VALID,353,VALID,0.45662,
2005-08-26, 02:49:00,VALID,917.376,VALID,0,VALID,100,VALID,-0.0509425,VALID,19.0384,VALID,353,VALID,0.514623,
2005-08-26, 02:50:00,VALID,917.376,VALID,0,VALID,100,VALID,0,VALID,19.0444,VALID,353,VALID,0.555197,
2005-08-26, 02:51:00,VALID,917.385,VALID,0,VALID,100,VALID,-0.0169808,VALID,19.0571,VALID,353,VALID,0.499092,
2005-08-26, 02:52:00,VALID,917.386,VALID,0,VALID,100,VALID,-0.0169808,VALID,19.063,VALID,353,VALID,0.188834,
2005-08-26, 02:53:00,VALID,917.395,VALID,0,VALID,100,VALID,0,VALID,19.0767,VALID,353,VALID,0.0617733,
2005-08-26, 02:54:00,VALID,917.377,VALID,0,VALID,100,VALID,-0.0169808,VALID,19.0804,VALID,353,VALID,0,
2005-08-26, 02:55:00,VALID,917.361,VALID,0,VALID,100,VALID,-0.0169808,VALID,19.0801,VALID,353,VALID,0.247275,
2005-08-26, 02:56:00,VALID,917.345,VALID,0,VALID,100,VALID,-0.0509425,VALID,19.0732,VALID,29,VALID,0.631288,
2005-08-26, 02:57:00,VALID,917.344,VALID,0,VALID,100,VALID,-0.0169808,VALID,19.0993,VALID,35,VALID,0.736151,
2005-08-26, 02:58:00,VALID,917.348,VALID,0,VALID,100,VALID,-0.0509425,VALID,19.1057,VALID,21,VALID,0.988281,
2005-08-26, 02:59:00,VALID,917.36,VALID,0,VALID,100,VALID,-0.0509425,VALID,19.1085,VALID,10,VALID,0.811942,
2005-08-26, 03:00:00,VALID,917.372,VALID,0,VALID,100,VALID,0.0169808,VALID,19.1212,VALID,11,VALID,0.870236,
2005-08-26, 03:01:00,VALID,917.362,VALID,0,VALID,100,VALID,0.0169808,VALID,19.1311,VALID,18,VALID,0.745427,
2005-08-26, 03:02:00,VALID,917.346,VALID,0,VALID,100,VALID,0,VALID,19.1313,VALID,30,VALID,0.960938,
2005-08-26, 03:03:00,VALID,917.334,VALID,0,VALID,100,VALID,0.0169808,VALID,19.1246,VALID,33,VALID,0.924083,
2005-08-26, 03:04:00,VALID,917.307,VALID,0,VALID,100,VALID,0.0169808,VALID,19.1045,VALID,30,VALID,0.604048,
2005-08-26, 03:05:00,VALID,917.282,VALID,0,VALID,100,VALID,0.0169808,VALID,19.135,VALID,29,VALID,0.364879,
2005-08-26, 03:06:00,VALID,917.238,VALID,0,VALID,100,VALID,0.0169808,VALID,19.1209,VALID,19,VALID,0.440696,
2005-08-26, 03:07:00,VALID,917.202,VALID,0,VALID,100,VALID,0.0169808,VALID,19.1311,VALID,360,VALID,0.32431,
2005-08-26, 03:08:00,VALID,917.181,VALID,0,VALID,100,VALID,0.0509425,VALID,19.1341,VALID,360,VALID,0.130716,
2005-08-26, 03:09:00,VALID,917.169,VALID,0,VALID,100,VALID,0.0339617,VALID,19.1306,VALID,360,VALID,0.24782,
2005-08-26, 03:10:00,VALID,917.157,VALID,0,VALID,100,VALID,0.0509425,VALID,19.1246,VALID,360,VALID,0.454427,
2005-08-26, 03:11:00,VALID,917.13,VALID,0,VALID,100,VALID,0.0339617,VALID,19.1149,VALID,360,VALID,0.428571,
2005-08-26, 03:12:00,VALID,917.104,VALID,0,VALID,100,VALID,0,VALID,19.1212,VALID,360,VALID,0.385352,
2005-08-26, 03:13:00,VALID,917.09,VALID,0,VALID,100,VALID,0.0169808,VALID,19.1177,VALID,360,VALID,0.242014,
2005-08-26, 03:14:00,VALID,917.08,VALID,0,VALID,100,VALID,0.0509425,VALID,19.1343,VALID,313,VALID,0.480196,
2005-08-26, 03:15:00,VALID,917.074,VALID,0,VALID,100,VALID,-0.0339617,VALID,19.1226,VALID,266,VALID,0.486683,
2005-08-26, 03:16:00,VALID,917.058,VALID,0,VALID,100,VALID,-0.0849042,VALID,19.1201,VALID,289,VALID,0.218056,
2005-08-26, 03:17:00,VALID,917.044,VALID,0,VALID,100,VALID,-0.0849042,VALID,19.1256,VALID,11,VALID,1.28437,
2005-08-26, 03:18:00,VALID,917.047,VALID,0,VALID,100,VALID,-0.101885,VALID,19.1293,VALID,15,VALID,1.2699,
2005-08-26, 03:19:00,VALID,917.062,VALID,0,VALID,100,VALID,-0.101885,VALID,19.1296,VALID,14,VALID,1.10316,
2005-08-26, 03:20:00,VALID,917.077,VALID,0,VALID,100,VALID,-0.101885,VALID,19.1226,VALID,13,VALID,0.954578,
2005-08-26, 03:21:00,VALID,917.089,VALID,0,VALID,100,VALID,-0.101885,VALID,19.1256,VALID,8,VALID,0.432351,
2005-08-26, 03:22:00,VALID,917.085,VALID,0,VALID,100,VALID,-0.101885,VALID,19.1263,VALID,8,VALID,0.256324,
2005-08-26, 03:23:00,VALID,917.087,VALID,0,VALID,100,VALID,-0.0679233,VALID,19.1191,VALID,8,VALID,0.293605,
2005-08-26, 03:24:00,VALID,917.072,VALID,0,VALID,100,VALID,-0.101885,VALID,19.1005,VALID,8,VALID,0.317578,
2005-08-26, 03:25:00,VALID,917.068,VALID,0,VALID,100,VALID,-0.101885,VALID,19.101,VALID,27,VALID,0.277058,
2005-08-26, 03:26:00,VALID,917.069,VALID,0,VALID,100,VALID,-0.0849042,VALID,19.0642,VALID,56,VALID,0.0641741,
2005-08-26, 03:27:00,VALID,917.068,VALID,0,VALID,100,VALID,-0.0679233,VALID,19.0617,VALID,56,VALID,0.046689,
2005-08-26, 03:28:00,VALID,917.096,VALID,0,VALID,100,VALID,-0.0849042,VALID,19.0516,VALID,56,VALID,0,
2005-08-26, 03:29:00,VALID,917.108,VALID,0,VALID,100,VALID,-0.0849042,VALID,19.0319,VALID,56,VALID,0,
2005-08-26, 03:30:00,VALID,917.115,VALID,0,VALID,100,VALID,-0.0679233,VALID,19.0324,VALID,56,VALID,0,
2005-08-26, 03:31:00,VALID,917.157,VALID,0,VALID,100,VALID,-0.0679233,VALID,19.0128,VALID,56,VALID,0,
2005-08-26, 03:32:00,VALID,917.166,VALID,0,VALID,100,VALID,-0.0679233,VALID,18.9969,VALID,56,VALID,0,
2005-08-26, 03:33:00,VALID,917.178,VALID,0,VALID,100,VALID,-0.101885,VALID,19.0001,VALID,56,VALID,0.0270833,
2005-08-26, 03:34:00,VALID,917.189,VALID,0,VALID,100,VALID,-0.101885,VALID,18.9907,VALID,56,VALID,0,
2005-08-26, 03:35:00,VALID,917.198,VALID,0,VALID,100,VALID,-0.0849042,VALID,18.987,VALID,56,VALID,0.00111607,
2005-08-26, 03:36:00,VALID,917.207,VALID,0,VALID,100,VALID,-0.101885,VALID,18.9808,VALID,56,VALID,0,
2005-08-26, 03:37:00,VALID,917.212,VALID,0,VALID,100,VALID,-0.101885,VALID,18.9741,VALID,56,VALID,0,
2005-08-26, 03:38:00,VALID,917.229,VALID,0,VALID,100,VALID,-0.101885,VALID,18.981,VALID,56,VALID,0,
2005-08-26, 03:39:00,VALID,917.234,VALID,0,VALID,100,VALID,-0.0849042,VALID,19.0038,VALID,56,VALID,0,
2005-08-26, 03:40:00,VALID,917.238,VALID,0,VALID,100,VALID,-0.0849042,VALID,19.0131,VALID,56,VALID,0.339571,
2005-08-26, 03:41:00,VALID,917.244,VALID,0,VALID,100,VALID,-0.0849042,VALID,19.016,VALID,56,VALID,0.356517,
2005-08-26, 03:42:00,VALID,917.242,VALID,0,VALID,100,VALID,-0.0849042,VALID,19.023,VALID,56,VALID,0.256722,
2005-08-26, 03:43:00,VALID,917.235,VALID,0,VALID,100,VALID,-0.0679233,VALID,19.0386,VALID,56,VALID,0.0330669,